TimeEDT,TemperatureF,Dew PointF,Humidity,Sea Level PressureIn,VisibilityMPH,Wind Direction,Wind SpeedMPH,Gust SpeedMPH,PrecipitationIn,Events,Conditions,WindDirDegrees,DateUTC
12:53 AM,41.0,33.1,73,30.08,10.0,Variable,5.8,-,0.00,,Overcast,0,2013-10-24 04:53:00
1:15 AM,39.2,35.6,87,30.07,10.0,North,5.8,-,0.00,,Overcast,10,2013-10-24 05:15:00
1:49 AM,39.2,33.8,81,30.08,10.0,NW,9.2,-,0.01,Rain,Light Rain,310,2013-10-24 05:49:00
1:53 AM,39.9,34.0,79,30.09,10.0,NW,3.5,-,0.01,Rain,Light Rain,310,2013-10-24 05:53:00
2:53 AM,39.9,34.0,79,30.09,10.0,WSW,3.5,-,0.00,,Overcast,250,2013-10-24 06:53:00
3:53 AM,39.9,32.0,73,30.09,10.0,WSW,6.9,-,N/A,,Overcast,250,2013-10-24 07:53:00
4:53 AM,39.9,32.0,73,30.09,10.0,WSW,4.6,-,N/A,,Overcast,250,2013-10-24 08:53:00
5:53 AM,39.0,33.1,79,30.10,10.0,SW,8.1,-,N/A,,Overcast,220,2013-10-24 09:53:00
6:53 AM,39.0,33.1,79,30.11,10.0,SW,9.2,-,N/A,,Overcast,230,2013-10-24 10:53:00
7:53 AM,39.0,32.0,76,30.12,10.0,West,9.2,-,N/A,,Overcast,280,2013-10-24 11:53:00
8:53 AM,39.0,33.1,79,30.13,10.0,SW,5.8,-,N/A,,Overcast,220,2013-10-24 12:53:00
9:53 AM,41.0,32.0,70,30.15,10.0,WSW,10.4,-,N/A,,Overcast,250,2013-10-24 13:53:00
10:53 AM,42.1,33.1,70,30.16,10.0,WSW,11.5,-,N/A,,Overcast,250,2013-10-24 14:53:00
11:53 AM,43.0,30.9,62,30.17,10.0,West,13.8,-,N/A,,Overcast,260,2013-10-24 15:53:00
12:53 PM,44.1,30.9,60,30.17,10.0,West,11.5,-,N/A,,Overcast,280,2013-10-24 16:53:00
1:53 PM,44.1,30.0,58,30.16,10.0,West,13.8,18.4,N/A,,Overcast,280,2013-10-24 17:53:00
2:53 PM,45.0,30.0,56,30.15,10.0,West,13.8,20.7,0.00,,Overcast,270,2013-10-24 18:53:00
3:53 PM,42.1,33.1,70,30.17,10.0,West,12.7,20.7,0.00,Rain,Light Rain,280,2013-10-24 19:53:00
4:53 PM,43.0,32.0,65,30.18,10.0,WSW,12.7,-,0.00,,Overcast,240,2013-10-24 20:53:00
5:53 PM,42.1,34.0,73,30.20,10.0,West,17.3,23.0,0.00,Rain,Light Rain,280,2013-10-24 21:53:00
6:53 PM,37.9,34.0,86,30.24,10.0,Calm,Calm,-,0.00,Rain,Light Rain,0,2013-10-24 22:53:00
7:34 PM,37.4,35.6,93,30.23,10.0,West,3.5,-,0.00,,Overcast,260,2013-10-24 23:34:00
7:53 PM,39.0,35.1,86,30.25,10.0,West,4.6,-,0.00,Rain,Light Rain,270,2013-10-24 23:53:00
8:53 PM,39.0,35.1,86,30.27,10.0,West,11.5,-,0.00,,Overcast,280,2013-10-25 00:53:00
9:53 PM,39.0,33.1,79,30.28,10.0,West,8.1,-,N/A,,Overcast,280,2013-10-25 01:53:00
10:53 PM,39.0,33.1,79,30.29,10.0,WNW,4.6,-,N/A,,Overcast,300,2013-10-25 02:53:00
11:53 PM,39.0,32.0,76,30.30,10.0,West,4.6,-,N/A,,Overcast,280,2013-10-25 03:53:00